Time,TemperatureF,DewpointF,PressureIn,WindDirection,WindDirectionDegrees,WindSpeedMPH,WindSpeedGustMPH,Humidity,HourlyPrecipIn,Conditions,Clouds,dailyrainin,SolarRadiationWatts/m^2,SoftwareType,DateUTC
2014-01-12 00:00:00,48.0,37.0,30.09,WNW,286,0.0,0.0,66,0.00,,,0.20,16,weatherlink.com 1.10,2014-01-12 06:00:00,
2014-01-12 00:15:00,47.2,37.0,30.08,WNW,286,0.0,1.0,67,0.00,,,0.00,16,weatherlink.com 1.10,2014-01-12 06:15:00,
2014-01-12 00:31:00,46.5,37.0,30.09,WNW,286,0.0,0.0,70,0.00,,,0.00,16,weatherlink.com 1.10,2014-01-12 06:31:00,
2014-01-12 00:46:00,45.9,37.0,30.09,WNW,286,0.0,0.0,71,0.00,,,0.00,18,weatherlink.com 1.10,2014-01-12 06:46:00,
2014-01-12 01:01:00,45.5,37.0,30.09,WNW,286,0.0,0.0,73,0.00,,,0.00,16,weatherlink.com 1.10,2014-01-12 07:01:00,
2014-01-12 01:16:00,45.1,37.0,30.09,WNW,286,0.0,0.0,74,0.00,,,0.00,16,weatherlink.com 1.10,2014-01-12 07:16:00,
2014-01-12 01:31:00,44.8,37.0,30.10,WNW,286,0.0,0.0,75,0.00,,,0.00,18,weatherlink.com 1.10,2014-01-12 07:31:00,
2014-01-12 01:46:00,44.6,37.0,30.10,WNW,286,0.0,0.0,74,0.00,,,0.00,16,weatherlink.com 1.10,2014-01-12 07:46:00,
2014-01-12 02:01:00,44.3,38.0,30.10,WNW,286,0.0,1.0,77,0.00,,,0.00,16,weatherlink.com 1.10,2014-01-12 08:01:00,
2014-01-12 02:16:00,44.4,37.0,30.11,WNW,286,0.0,0.0,76,0.00,,,0.00,16,weatherlink.com 1.10,2014-01-12 08:16:00,
2014-01-12 02:31:00,44.6,37.0,30.11,WNW,286,0.0,1.0,75,0.00,,,0.00,16,weatherlink.com 1.10,2014-01-12 08:31:00,
2014-01-12 02:46:00,44.8,35.0,30.11,WNW,286,0.0,2.0,69,0.00,,,0.00,16,weatherlink.com 1.10,2014-01-12 08:46:00,
2014-01-12 03:01:00,47.2,35.0,30.11,WNW,300,3.0,5.0,63,0.00,,,0.00,16,weatherlink.com 1.10,2014-01-12 09:01:00,
2014-01-12 03:16:00,48.0,34.0,30.11,NW,311,2.0,4.0,58,0.00,,,0.00,16,weatherlink.com 1.10,2014-01-12 09:16:00,
2014-01-12 03:31:00,48.5,33.0,30.11,NW,322,4.0,6.0,56,0.00,,,0.00,16,weatherlink.com 1.10,2014-01-12 09:31:00,
2014-01-12 03:46:00,48.8,33.0,30.11,NW,304,4.0,5.0,55,0.00,,,0.00,16,weatherlink.com 1.10,2014-01-12 09:46:00,
2014-01-12 04:01:00,49.2,33.0,30.11,WNW,288,1.0,4.0,54,0.00,,,0.00,18,weatherlink.com 1.10,2014-01-12 10:01:00,
2014-01-12 04:16:00,48.5,33.0,30.12,WNW,287,1.0,4.0,56,0.00,,,0.00,16,weatherlink.com 1.10,2014-01-12 10:16:00,
2014-01-12 04:31:00,47.3,33.0,30.12,WNW,287,0.0,3.0,59,0.00,,,0.00,16,weatherlink.com 1.10,2014-01-12 10:31:00,
2014-01-12 04:46:00,47.0,34.0,30.12,WNW,287,0.0,1.0,60,0.00,,,0.00,16,weatherlink.com 1.10,2014-01-12 10:46:00,
2014-01-12 05:01:00,46.0,34.0,30.13,WNW,287,0.0,2.0,63,0.00,,,0.00,16,weatherlink.com 1.10,2014-01-12 11:01:00,
2014-01-12 05:16:00,46.1,33.0,30.12,WNW,287,3.0,3.0,61,0.00,,,0.00,16,weatherlink.com 1.10,2014-01-12 11:16:00,
2014-01-12 05:31:00,46.6,34.0,30.13,NNW,344,0.0,3.0,61,0.00,,,0.00,16,weatherlink.com 1.10,2014-01-12 11:31:00,
2014-01-12 05:46:00,46.2,35.0,30.14,NNW,344,0.0,1.0,64,0.00,,,0.00,16,weatherlink.com 1.10,2014-01-12 11:46:00,
2014-01-12 06:01:00,45.2,35.0,30.15,NNW,344,0.0,1.0,68,0.00,,,0.00,16,weatherlink.com 1.10,2014-01-12 12:01:00,
2014-01-12 06:16:00,43.6,35.0,30.15,NNW,344,0.0,1.0,72,0.00,,,0.00,16,weatherlink.com 1.10,2014-01-12 12:16:00,
2014-01-12 06:31:00,43.2,35.0,30.15,NNW,344,0.0,0.0,72,0.00,,,0.00,16,weatherlink.com 1.10,2014-01-12 12:31:00,
2014-01-12 06:46:00,42.7,34.0,30.16,NNW,344,0.0,1.0,71,0.00,,,0.00,19,weatherlink.com 1.10,2014-01-12 12:46:00,
2014-01-12 07:01:00,42.6,34.0,30.16,NNW,344,0.0,1.0,72,0.00,,,0.00,25,weatherlink.com 1.10,2014-01-12 13:01:00,
2014-01-12 07:17:00,43.1,35.0,30.16,NNW,344,0.0,1.0,72,0.00,,,0.00,18,weatherlink.com 1.10,2014-01-12 13:17:00,
2014-01-12 07:32:00,45.4,34.0,30.17,North,355,2.0,3.0,65,0.00,,,0.00,74,weatherlink.com 1.10,2014-01-12 13:32:00,
2014-01-12 07:47:00,48.0,35.0,30.18,North,349,1.0,4.0,60,0.00,,,0.00,128,weatherlink.com 1.10,2014-01-12 13:47:00,
2014-01-12 08:02:00,50.1,36.0,30.19,North,349,0.0,1.0,58,0.00,,,0.00,195,weatherlink.com 1.10,2014-01-12 14:02:00,
2014-01-12 08:17:00,51.7,34.0,30.19,North,349,2.0,3.0,52,0.00,,,0.00,264,weatherlink.com 1.10,2014-01-12 14:17:00,
2014-01-12 08:32:00,52.6,36.0,30.20,North,350,0.0,3.0,53,0.00,,,0.00,318,weatherlink.com 1.10,2014-01-12 14:32:00,
2014-01-12 08:47:00,53.7,36.0,30.21,NNE,13,0.0,4.0,51,0.00,,,0.00,366,weatherlink.com 1.10,2014-01-12 14:47:00,
2014-01-12 09:02:00,55.3,37.0,30.22,East,95,3.0,4.0,50,0.00,,,0.00,413,weatherlink.com 1.10,2014-01-12 15:02:00,
2014-01-12 09:17:00,55.6,38.0,30.22,ENE,67,2.0,4.0,52,0.00,,,0.00,454,weatherlink.com 1.10,2014-01-12 15:17:00,
2014-01-12 09:32:00,56.2,39.0,30.22,East,94,1.0,5.0,52,0.00,,,0.00,496,weatherlink.com 1.10,2014-01-12 15:32:00,
2014-01-12 09:47:00,56.8,38.0,30.23,NE,53,1.0,5.0,50,0.00,,,0.00,533,weatherlink.com 1.10,2014-01-12 15:47:00,
2014-01-12 10:02:00,58.1,39.0,30.23,East,101,2.0,3.0,49,0.00,,,0.00,566,weatherlink.com 1.10,2014-01-12 16:02:00,
2014-01-12 10:17:00,59.1,38.0,30.22,East,95,0.0,3.0,46,0.00,,,0.00,587,weatherlink.com 1.10,2014-01-12 16:17:00,
2014-01-12 10:32:00,60.2,37.0,30.21,ESE,122,0.0,6.0,42,0.00,,,0.00,592,weatherlink.com 1.10,2014-01-12 16:32:00,
2014-01-12 10:47:00,60.7,35.0,30.20,SSE,165,1.0,5.0,39,0.00,,,0.00,394,weatherlink.com 1.10,2014-01-12 16:47:00,
2014-01-12 11:03:00,61.9,36.0,30.20,SSE,165,2.0,5.0,38,0.00,,,0.00,313,weatherlink.com 1.10,2014-01-12 17:03:00,
2014-01-12 11:18:00,62.2,35.0,30.19,SE,130,3.0,6.0,37,0.00,,,0.00,369,weatherlink.com 1.10,2014-01-12 17:18:00,
2014-01-12 11:33:00,62.5,34.0,30.19,WSW,251,2.0,6.0,34,0.00,,,0.00,696,weatherlink.com 1.10,2014-01-12 17:33:00,
2014-01-12 11:49:00,62.4,34.0,30.18,WSW,252,1.0,4.0,35,0.00,,,0.00,698,weatherlink.com 1.10,2014-01-12 17:49:00,
2014-01-12 12:03:00,63.0,35.0,30.16,SE,127,1.0,7.0,36,0.00,,,0.00,682,weatherlink.com 1.10,2014-01-12 18:03:00,
2014-01-12 12:18:00,63.2,34.0,30.16,SSE,159,2.0,7.0,34,0.00,,,0.00,446,weatherlink.com 1.10,2014-01-12 18:18:00,
2014-01-12 12:33:00,63.7,34.0,30.15,SSE,160,2.0,4.0,33,0.00,,,0.00,28,weatherlink.com 1.10,2014-01-12 18:33:00,
2014-01-12 12:48:00,64.5,34.0,30.15,WSW,256,2.0,4.0,32,0.00,,,0.00,30,weatherlink.com 1.10,2014-01-12 18:48:00,
2014-01-12 13:03:00,64.8,34.0,30.14,SE,128,4.0,6.0,32,0.00,,,0.00,30,weatherlink.com 1.10,2014-01-12 19:03:00,
2014-01-12 13:19:00,64.7,34.0,30.13,South,182,1.0,12.0,32,0.00,,,0.00,33,weatherlink.com 1.10,2014-01-12 19:19:00,
2014-01-12 13:33:00,64.4,34.0,30.13,SSE,150,6.0,11.0,32,0.00,,,0.00,32,weatherlink.com 1.10,2014-01-12 19:33:00,
2014-01-12 13:48:00,63.4,34.0,30.13,SSE,147,8.0,14.0,34,0.00,,,0.00,30,weatherlink.com 1.10,2014-01-12 19:48:00,
2014-01-12 14:03:00,63.7,33.0,30.13,SSE,167,4.0,12.0,32,0.00,,,0.00,26,weatherlink.com 1.10,2014-01-12 20:03:00,
2014-01-12 14:18:00,63.2,33.0,30.13,SSE,166,5.0,14.0,33,0.00,,,0.00,28,weatherlink.com 1.10,2014-01-12 20:18:00,
2014-01-12 14:33:00,63.0,33.0,30.13,SE,138,8.0,12.0,33,0.00,,,0.00,30,weatherlink.com 1.10,2014-01-12 20:33:00,
2014-01-12 14:48:00,63.7,32.0,30.13,SE,138,7.0,11.0,31,0.00,,,0.00,25,weatherlink.com 1.10,2014-01-12 20:48:00,
2014-01-12 15:03:00,63.2,33.0,30.13,SE,134,7.0,14.0,32,0.00,,,0.00,23,weatherlink.com 1.10,2014-01-12 21:03:00,
2014-01-12 15:18:00,63.6,32.0,30.13,SSE,151,5.0,9.0,31,0.00,,,0.00,23,weatherlink.com 1.10,2014-01-12 21:18:00,
2014-01-12 15:33:00,63.4,30.0,30.12,SSE,164,3.0,9.0,28,0.00,,,0.00,21,weatherlink.com 1.10,2014-01-12 21:33:00,
2014-01-12 15:48:00,63.0,29.0,30.13,ESE,123,5.0,10.0,28,0.00,,,0.00,21,weatherlink.com 1.10,2014-01-12 21:48:00,
2014-01-12 16:03:00,63.0,29.0,30.13,ESE,112,2.0,9.0,28,0.00,,,0.00,44,weatherlink.com 1.10,2014-01-12 22:03:00,
2014-01-12 16:18:00,62.9,30.0,30.13,SE,124,7.0,8.0,29,0.00,,,0.00,67,weatherlink.com 1.10,2014-01-12 22:18:00,
2014-01-12 16:33:00,62.4,32.0,30.14,South,175,2.0,11.0,32,0.00,,,0.00,32,weatherlink.com 1.10,2014-01-12 22:33:00,
2014-01-12 16:48:00,61.1,32.0,30.14,South,171,2.0,10.0,34,0.00,,,0.00,11,weatherlink.com 1.10,2014-01-12 22:48:00,
2014-01-12 17:03:00,59.8,33.0,30.13,South,187,1.0,7.0,37,0.00,,,0.00,5,weatherlink.com 1.10,2014-01-12 23:03:00,
2014-01-12 17:18:00,58.6,34.0,30.13,SSE,151,1.0,6.0,40,0.00,,,0.00,0,weatherlink.com 1.10,2014-01-12 23:18:00,
2014-01-12 17:33:00,57.4,35.0,30.13,South,182,2.0,4.0,44,0.00,,,0.00,16,weatherlink.com 1.10,2014-01-12 23:33:00,
2014-01-12 17:48:00,56.6,36.0,30.14,South,190,2.0,4.0,46,0.00,,,0.00,16,weatherlink.com 1.10,2014-01-12 23:48:00,
2014-01-12 18:03:00,55.9,36.0,30.14,South,183,1.0,4.0,48,0.00,,,0.00,16,weatherlink.com 1.10,2014-01-13 00:03:00,
2014-01-12 18:18:00,55.4,37.0,30.14,South,186,2.0,3.0,50,0.00,,,0.00,16,weatherlink.com 1.10,2014-01-13 00:18:00,
2014-01-12 18:33:00,54.9,38.0,30.15,South,185,1.0,4.0,53,0.00,,,0.00,16,weatherlink.com 1.10,2014-01-13 00:33:00,
2014-01-12 18:48:00,54.5,38.0,30.14,South,181,1.0,5.0,55,0.00,,,0.00,16,weatherlink.com 1.10,2014-01-13 00:48:00,
2014-01-12 19:03:00,54.3,39.0,30.15,South,174,0.0,4.0,57,0.00,,,0.00,18,weatherlink.com 1.10,2014-01-13 01:03:00,
2014-01-12 19:18:00,53.9,40.0,30.15,South,178,0.0,4.0,60,0.00,,,0.00,16,weatherlink.com 1.10,2014-01-13 01:18:00,
2014-01-12 19:33:00,53.6,41.0,30.15,SE,138,1.0,3.0,63,0.00,,,0.00,16,weatherlink.com 1.10,2014-01-13 01:33:00,
2014-01-12 19:48:00,53.7,42.0,30.16,South,184,1.0,5.0,65,0.00,,,0.00,16,weatherlink.com 1.10,2014-01-13 01:48:00,
2014-01-12 20:03:00,53.3,42.0,30.16,South,182,0.0,3.0,66,0.00,,,0.00,16,weatherlink.com 1.10,2014-01-13 02:03:00,
2014-01-12 20:18:00,52.9,43.0,30.16,South,178,0.0,2.0,68,0.00,,,0.00,16,weatherlink.com 1.10,2014-01-13 02:18:00,
2014-01-12 20:33:00,52.5,43.0,30.16,South,178,1.0,3.0,70,0.00,,,0.00,16,weatherlink.com 1.10,2014-01-13 02:33:00,
2014-01-12 20:48:00,52.9,43.0,30.15,SE,142,3.0,4.0,69,0.00,,,0.00,16,weatherlink.com 1.10,2014-01-13 02:48:00,
2014-01-12 21:03:00,53.1,43.0,30.14,SE,134,3.0,7.0,69,0.00,,,0.00,16,weatherlink.com 1.10,2014-01-13 03:03:00,
2014-01-12 21:18:00,52.6,43.0,30.14,SE,132,2.0,6.0,71,0.00,,,0.00,16,weatherlink.com 1.10,2014-01-13 03:18:00,
2014-01-12 21:33:00,52.3,44.0,30.14,SSE,165,0.0,4.0,74,0.00,,,0.00,16,weatherlink.com 1.10,2014-01-13 03:33:00,
2014-01-12 21:49:00,51.9,44.0,30.15,SSE,165,0.0,3.0,75,0.00,,,0.00,16,weatherlink.com 1.10,2014-01-13 03:49:00,
2014-01-12 22:04:00,51.3,45.0,30.14,SSE,149,4.0,4.0,79,0.00,,,0.00,16,weatherlink.com 1.10,2014-01-13 04:04:00,
2014-01-12 22:19:00,51.5,46.0,30.14,SE,144,0.0,3.0,80,0.00,,,0.00,16,weatherlink.com 1.10,2014-01-13 04:19:00,
2014-01-12 22:34:00,52.2,46.0,30.14,SSE,160,2.0,5.0,80,0.00,,,0.00,16,weatherlink.com 1.10,2014-01-13 04:34:00,
2014-01-12 22:49:00,52.5,47.0,30.14,South,175,1.0,6.0,80,0.00,,,0.00,16,weatherlink.com 1.10,2014-01-13 04:49:00,
2014-01-12 23:04:00,52.7,47.0,30.14,SSW,192,1.0,6.0,80,0.00,,,0.00,16,weatherlink.com 1.10,2014-01-13 05:04:00,
2014-01-12 23:19:00,52.6,47.0,30.14,South,180,1.0,3.0,80,0.00,,,0.00,16,weatherlink.com 1.10,2014-01-13 05:19:00,
2014-01-12 23:34:00,52.8,46.0,30.13,SSE,150,0.0,5.0,79,0.00,,,0.00,16,weatherlink.com 1.10,2014-01-13 05:34:00,
2014-01-12 23:49:00,53.6,47.0,30.12,South,171,5.0,7.0,78,0.00,,,0.00,16,weatherlink.com 1.10,2014-01-13 05:49:00,